Location: Austin
(30.3000°N, 97.7500°W)
Time: 21:48:21
(UTC-06:00)

Cosmos 1697 Rocket - Pass Details

Date: 03 December 2025
Orbit: 832 x 841 km, 71.0° (Epoch: 06 December)

Event Time Altitude Azimuth Distance (km) Brightness Sun altitude
Exits shadow 05:19:51 16° 354° (N) 2,046 4.5 -23.6°
Maximum altitude 05:24:14 55° 68° (ENE) 999 3.3 -22.7°
Drops below altitude 10° 05:29:44 10° 146° (SE) 2,447 5.7 -21.6°
Sets 05:32:13 0° 150° (SSE) 3,379 6.5 -21.0°
